sat.trackr.live / text

‹ back to catalog

STARLINK-30868

NORAD 58390 · 2023-178S

PAYLOAD ACTIVE UNKNOWN

§ Identity

Operator
Country
US
Launch date
2023-11-20
Launch site
AFWTR
Launch vehicle
Mass (kg)
RCS (m²)

Purposes: comms

External: N2YO · Heavens-Above · Gunter

§ Orbital elements

Epoch: 2026-09-20T00:25:43.375296Z

Period
93.85 min
Inclination
53.1588°
Eccentricity
0.0001293
Mean motion
15.34404751 rev/d
Perigee alt
461.8 km
Apogee alt
463.6 km
Semi-major
6,840.8 km
B*
1.0422e-4
RAAN
174.2084°
Arg perigee
65.7407°
Mean anomaly
294.3731°
Rev number
15,970

§ Raw data

STARLINK-308681 58390U 23178S   26263.01786314  .00003147  00000+0  10422-3 0  99912 58390  53.1588 174.2084 0001293  65.7407 294.3731 15.34404751159702

JSON: /api/v1/satellites/58390 · /tle

For live sub-satellite position, see the globe view (requires WebGL).

§ Visibility from observer

Set your observer location to see the next 7 days of passes ≥ 10°. The values pass through the URL so the page stays shareable.

No JS? Fill the form by hand. The geolocation button needs JavaScript.